Hourly Weather Bolshie Tigany

Today, 31 July, Saturday

Time Temperature Precipitation Wind Pressure Humidity
00:00 +21°C° 0 mm 3 mps 743 mmHg 74%
01:00 +21°C° 0.2 mm 3 mps 743 mmHg 78%
02:00 +20°C° 0.2 mm 4 mps 743 mmHg 83%
03:00 +19°C° 0 mm 3 mps 743 mmHg 88%
04:00 +20°C° 0 mm 3 mps 743 mmHg 87%
05:00 +20°C° 0 mm 4 mps 743 mmHg 87%
06:00 +20°C° 0 mm 4 mps 743 mmHg 87%
07:00 +22°C° 0 mm 4 mps 743 mmHg 80%
08:00 +23°C° 0 mm 5 mps 742 mmHg 72%
09:00 +26°C° 0 mm 5 mps 743 mmHg 65%
10:00 +27°C° 0 mm 5 mps 743 mmHg 60%
11:00 +28°C° 0 mm 6 mps 742 mmHg 56%
12:00 +30°C° 0 mm 7 mps 742 mmHg 52%
13:00 +29°C° 0.2 mm 7 mps 743 mmHg 53%
14:00 +29°C° 0.2 mm 7 mps 743 mmHg 54%
15:00 +28°C° 0.2 mm 7 mps 743 mmHg 55%
16:00 +28°C° 0 mm 6 mps 743 mmHg 56%
17:00 +27°C° 0 mm 5 mps 743 mmHg 57%
18:00 +27°C° 0 mm 5 mps 744 mmHg 58%
19:00 +26°C° 0 mm 5 mps 744 mmHg 63%
20:00 +23°C° 0 mm 4 mps 745 mmHg 68%
21:00 +22°C° 0 mm 4 mps 745 mmHg 73%
22:00 +22°C° 0 mm 4 mps 745 mmHg 74%
23:00 +21°C° 0 mm 4 mps 745 mmHg 76%

Tomorrow, 1 August, Sunday

Time Temperature Precipitation Wind Pressure Humidity
00:00 +20°C° 0 mm 3 mps 746 mmHg 77%
01:00 +20°C° 0 mm 3 mps 746 mmHg 77%
02:00 +19°C° 0 mm 4 mps 746 mmHg 76%
03:00 +19°C° 0 mm 4 mps 746 mmHg 76%
04:00 +20°C° 0 mm 4 mps 747 mmHg 73%
05:00 +21°C° 0 mm 4 mps 747 mmHg 70%
06:00 +21°C° 0 mm 4 mps 747 mmHg 68%
07:00 +23°C° 0 mm 4 mps 748 mmHg 63%
08:00 +25°C° 0 mm 4 mps 748 mmHg 58%
09:00 +26°C° 0 mm 4 mps 748 mmHg 54%
10:00 +27°C° 0 mm 4 mps 748 mmHg 48%
11:00 +28°C° 0 mm 5 mps 748 mmHg 43%
12:00 +30°C° 0 mm 5 mps 748 mmHg 38%
13:00 +30°C° 0 mm 5 mps 748 mmHg 36%
14:00 +30°C° 0 mm 5 mps 748 mmHg 34%
15:00 +32°C° 0 mm 5 mps 748 mmHg 33%
16:00 +30°C° 0 mm 4 mps 748 mmHg 36%
17:00 +29°C° 0 mm 3 mps 748 mmHg 39%
18:00 +28°C° 0 mm 2 mps 748 mmHg 42%
19:00 +27°C° 0 mm 2 mps 748 mmHg 46%
20:00 +25°C° 0 mm 1 mps 749 mmHg 50%
21:00 +21°C° 0 mm 0 mps 749 mmHg 54%
22:00 +23°C° 0 mm 1 mps 749 mmHg 55%
23:00 +22°C° 0 mm 1 mps 749 mmHg 55%

Day after tomorrow, 2 August, Monday

Time Temperature Precipitation Wind Pressure Humidity
00:00 +22°C° 0 mm 1 mps 749 mmHg 56%
01:00 +20°C° 0 mm 2 mps 749 mmHg 57%
02:00 +20°C° 0 mm 2 mps 749 mmHg 59%
03:00 +19°C° 0 mm 2 mps 749 mmHg 60%
04:00 +20°C° 0 mm 2 mps 749 mmHg 59%
05:00 +21°C° 0 mm 2 mps 750 mmHg 59%
06:00 +23°C° 0 mm 2 mps 750 mmHg 58%
07:00 +25°C° 0 mm 2 mps 750 mmHg 52%
08:00 +27°C° 0 mm 2 mps 750 mmHg 47%
09:00 +29°C° 0 mm 3 mps 750 mmHg 41%
10:00 +30°C° 0 mm 3 mps 750 mmHg 38%
11:00 +31°C° 0 mm 3 mps 750 mmHg 34%
12:00 +33°C° 0 mm 3 mps 750 mmHg 31%
13:00 +34°C° 0 mm 3 mps 749 mmHg 31%
14:00 +34°C° 0 mm 3 mps 749 mmHg 30%
15:00 +34°C° 0 mm 3 mps 749 mmHg 29%
16:00 +34°C° 0 mm 2 mps 748 mmHg 32%
17:00 +32°C° 0 mm 1 mps 748 mmHg 35%
18:00 +31°C° 0 mm 1 mps 748 mmHg 39%
19:00 +29°C° 0 mm 1 mps 748 mmHg 41%
20:00 +27°C° 0 mm 2 mps 748 mmHg 43%
21:00 +26°C° 0 mm 3 mps 748 mmHg 45%
22:00 +25°C° 0 mm 3 mps 748 mmHg 45%
23:00 +25°C° 0 mm 3 mps 747 mmHg 45%

3 August, Tuesday

Time Temperature Precipitation Wind Pressure Humidity
00:00 +24°C° 0 mm 3 mps 747 mmHg 45%
01:00 +24°C° 0 mm 3 mps 747 mmHg 48%
02:00 +24°C° 0 mm 3 mps 747 mmHg 50%
03:00 +24°C° 0 mm 3 mps 747 mmHg 53%
04:00 +25°C° 0 mm 4 mps 747 mmHg 51%
05:00 +26°C° 0 mm 4 mps 747 mmHg 49%
06:00 +27°C° 0 mm 4 mps 747 mmHg 47%
07:00 +29°C° 0 mm 5 mps 747 mmHg 43%
08:00 +32°C° 0 mm 5 mps 746 mmHg 39%
09:00 +34°C° 0 mm 6 mps 746 mmHg 34%
10:00 +35°C° 0 mm 5 mps 746 mmHg 30%
11:00 +37°C° 0 mm 5 mps 746 mmHg 25%
12:00 +38°C° 0 mm 4 mps 746 mmHg 21%
13:00 +40°C° 0 mm 4 mps 745 mmHg 21%
14:00 +40°C° 0 mm 4 mps 745 mmHg 21%
15:00 +40°C° 0 mm 4 mps 745 mmHg 20%
16:00 +36°C° 0.1 mm 4 mps 744 mmHg 29%
17:00 +33°C° 0.1 mm 3 mps 744 mmHg 37%
18:00 +29°C° 0.1 mm 3 mps 744 mmHg 45%
19:00 +28°C° 0.5 mm 3 mps 745 mmHg 51%
20:00 +26°C° 0.5 mm 2 mps 745 mmHg 58%
21:00 +25°C° 0.5 mm 2 mps 745 mmHg 64%
22:00 +24°C° 0 mm 2 mps 746 mmHg 65%
23:00 +24°C° 0 mm 2 mps 746 mmHg 65%

4 August, Wednesday

Time Temperature Precipitation Wind Pressure Humidity
00:00 +23°C° 0 mm 2 mps 746 mmHg 65%
01:00 +23°C° 0 mm 2 mps 746 mmHg 66%
02:00 +21°C° 0 mm 2 mps 746 mmHg 66%
03:00 +22°C° 0 mm 1 mps 746 mmHg 66%
04:00 +22°C° 0 mm 1 mps 746 mmHg 66%
05:00 +23°C° 0 mm 1 mps 746 mmHg 66%
06:00 +24°C° 0 mm 1 mps 746 mmHg 66%
07:00 +25°C° 0 mm 2 mps 746 mmHg 63%
08:00 +27°C° 0 mm 3 mps 746 mmHg 59%
09:00 +28°C° 0 mm 4 mps 747 mmHg 55%
10:00 +29°C° 0 mm 4 mps 747 mmHg 51%
11:00 +29°C° 0 mm 3 mps 747 mmHg 48%
12:00 +30°C° 0 mm 3 mps 747 mmHg 44%
13:00 +29°C° 0.3 mm 3 mps 747 mmHg 49%
14:00 +28°C° 0.3 mm 3 mps 747 mmHg 54%
15:00 +27°C° 0.3 mm 3 mps 747 mmHg 59%
16:00 +26°C° 0.7 mm 3 mps 747 mmHg 65%
17:00 +25°C° 0.7 mm 3 mps 747 mmHg 71%
18:00 +23°C° 0.7 mm 4 mps 747 mmHg 77%
19:00 +22°C° 0.4 mm 3 mps 747 mmHg 79%
20:00 +21°C° 0.4 mm 3 mps 748 mmHg 81%
21:00 +20°C° 0.4 mm 3 mps 748 mmHg 83%
22:00 +20°C° 0 mm 3 mps 748 mmHg 84%
23:00 +19°C° 0 mm 3 mps 748 mmHg 86%

5 August, Thursday

Time Temperature Precipitation Wind Pressure Humidity
00:00 +19°C° 0 mm 3 mps 749 mmHg 87%
01:00 +18°C° 0 mm 3 mps 749 mmHg 88%
02:00 +18°C° 0 mm 3 mps 749 mmHg 89%
03:00 +17°C° 0 mm 3 mps 749 mmHg 90%
04:00 +18°C° 0 mm 2 mps 749 mmHg 87%
05:00 +19°C° 0 mm 2 mps 749 mmHg 85%
06:00 +19°C° 0 mm 2 mps 749 mmHg 83%
07:00 +21°C° 0 mm 3 mps 749 mmHg 73%
08:00 +24°C° 0 mm 3 mps 750 mmHg 64%
09:00 +25°C° 0 mm 4 mps 750 mmHg 55%
10:00 +26°C° 0 mm 4 mps 750 mmHg 48%
11:00 +27°C° 0 mm 4 mps 750 mmHg 42%
12:00 +28°C° 0 mm 5 mps 750 mmHg 36%
13:00 +28°C° 0 mm 4 mps 750 mmHg 37%
14:00 +28°C° 0 mm 4 mps 750 mmHg 37%
15:00 +27°C° 0 mm 4 mps 750 mmHg 38%
16:00 +27°C° 0 mm 4 mps 750 mmHg 40%
17:00 +26°C° 0 mm 4 mps 750 mmHg 42%
18:00 +25°C° 0 mm 5 mps 750 mmHg 44%
19:00 +23°C° 0 mm 4 mps 750 mmHg 48%
20:00 +21°C° 0 mm 4 mps 750 mmHg 52%
21:00 +20°C° 0 mm 3 mps 750 mmHg 57%
22:00 +19°C° 0 mm 3 mps 750 mmHg 58%
23:00 +18°C° 0 mm 3 mps 750 mmHg 59%
Show more

We Need Your Consent

Meteoprog and our Service Providers may store and access personal data such as cookies, device identifiers or other similar technologies on your device and process such data to personalise content and ads, as well as provide social media features and to analyse the traffic.

  • Store and/or access information on your device

    Cookies, device identifiers or other information can be stored or accessed on your device for the purposes indicated above.

  • Personalised ads and content, ad and content measurement, audience insights, and products development

    Ads and content can be personalised based on a profile. More data can be added to better personalise ads and content. Ad and content performance can be measured. Insights about the audience who saw the ads and content can be derived. Such data can be used to develop or improve user’s experience, systems and software.

By clicking ‘I Agree’ you will allow the use of indicated cookies, device identifiers, web beacons or other similar technologies. Your settings can be changed in the browser on your device.

For certain purposes, legitimate interests may be relied on, rather than consent. You can read more about this in our Privacy and Cookie Policy.